Location: El Álamo
(40.2307°N, 3.9945°W)
Time: 04:34:20
(UTC+00:00)

Cosmos 2322 Rocket - Pass Details

Date: 19 May 2025
Orbit: 832 x 849 km, 71.0° (Epoch: 23 June)

Event Time Altitude Azimuth Distance (km) Brightness Sun altitude
Rises 22:51:06 0° 348° (NNW) 3,411 6.6 -26.9°
Reaches altitude 10° 22:54:15 10° 5° (N) 2,469 5.4 -27.1°
Maximum altitude 22:58:21 20° 52° (NE) 1,848 4.1 -27.4°
Enters shadow 23:00:04 18° 76° (ENE) 1,968 4.0 -27.5°
